Regional Weather Roundup
Issued by NWS Albany, NY

Home | Current Version | Previous Version | Graphics & Text | Print | Product List | Glossary Off
Versions: 1 2 3 4 5 6 7 8 9 10 11 12 13 14 15 16 17 18 19 20 21 22 23 24 25 26 27 28 29 30 31 32 33 34 35 36 37 38 39 40 41 42 43 44 45 46 47 48 49

000
ASUS41 KALY 311410
RWRALY

NEW YORK STATE HOURLY WEATHER ROUNDUP
NATIONAL WEATHER SERVICE ALBANY NY
1000 AM EDT FRI JUL 31 2015

NOTE: "FAIR" INDICATES FEW OR NO CLOUDS BELOW 12,000 FEET WITH NO
SIGNIFICANT WEATHER AND/OR NO OBSTRUCTIONS TO VISIBILITY.

NYZ032-033-038>043-046>054-057>066-NYZ062>081-311500-
EAST


CITY           SKY/WX    TMP DP  RH WIND       PRES   REMARKS
ALBANY         MOSUNNY   78  60  53 W13       29.84F
GLENS FALLS    MOSUNNY   76  59  55 SW7       29.82R
POUGHKEEPSIE   SUNNY     79  61  53 VRB5      29.86S
MONTGOMERY     SUNNY     79  62  56 NW8       29.88S
WHITE PLAINS   SUNNY     77  62  59 VRB5      29.88S
ISLIP          MOSUNNY   81  63  54 NW3       29.85S
NEW YORK CITY  SUNNY     81  60  48 NW8       29.87S
CENTRAL PARK   SUNNY     80  58  46 W6        29.91S
$$

NYZ005>009-017-018-044>046-055-056-311500-
CENTRAL


CITY           SKY/WX    TMP DP  RH WIND       PRES   REMARKS
FULTON         SUNNY     74  59  59 W9        29.89S
SYRACUSE       MOSUNNY   74  61  63 W12       29.89S
ROME           MOSUNNY   72  60  66 W15       29.89S
ELMIRA         SUNNY     76  59  55 W9        29.92F
BINGHAMTON     SUNNY     71  56  58 NW8       29.94S
MONTICELLO     SUNNY     72  61  68 NW9G16    29.94S
$$

NYZ026>034-041>043-311500-
NORTH


CITY           SKY/WX    TMP DP  RH WIND       PRES   REMARKS
WATERTOWN      SUNNY     72  59  63 SW9       29.86S
FORT DRUM      NOT AVBL
MASSENA        MOSUNNY   72  58  61 W13G20    29.81S
SARANAC LAKE   CLOUDY    65  56  72 SW8       29.84R
PLATTSBURGH    SUNNY     75  58  55 VRB7G20   29.77F
$$

NYZ001>004-010>016-019>021-311500-
WEST


CITY           SKY/WX    TMP DP  RH WIND       PRES   REMARKS
NIAGARA FALLS  MOSUNNY   75  56  51 S9        29.89F
BUFFALO        MOSUNNY   75  58  55 SW9       29.90F
DUNKIRK        SUNNY     77  63  61 SW9       29.92S
JAMESTOWN      SUNNY     72  63  73 SW9       29.98S
WELLSVILLE     SUNNY     73  58  59 VRB7      30.00F
ROCHESTER      SUNNY     75  57  53 W9        29.90F
PENN YAN       SUNNY     75  55  49 W7        29.93S
$$

             KEY
       WCI = WIND CHILL INDEX
       VSB = VISIBILITY
       HX  = HEAT INDEX
$$


USA.gov is the U.S. government's official web portal to all federal, state and local government web resources and services.